Date String (YYYY-MM-DD hh:mm:ss) UTC,Instrument flags,absolute air pressure of the measurement (hPa),sample flow rate (lpm),inlet stack bypass flow (lpm),air temperature of the measurement (°C),ambient temperature measured by the external sensor (°C),aerosol sample conditioner tube jacket temperature (°C),OPC LED temperature (°C),internal box temperature (°C),relative humidity of the measurement (%),span deviation,mass concentration of particles derived from Lorenz-Mie calculation of OPC scattering (μg/m³),mass concentration of particles derived from Lorenz-Mie calculation of OPC scattering (μg/m³),mass concentration of particles derived from Lorenz-Mie calculation of OPC scattering (μg/m³)
DateTimeUTC,F1_M11,P_M11,Q1_M11,Q2_M11,T1_M11,T2_M11,T3_M11,T4_M11,T5_M11,U1_M11,ZSPAN_M11,X0_M11,X2_M11,X1_M11
2024-06-13 05:00:00,SystemResetWarning,0830.0,4.99,000.00,029.2,026.9,000.0,037.8,030.3,018.9,0000.0,0009.42,0004.48,0003.74
2024-06-13 05:01:00,SystemResetWarning,0830.0,5.01,000.00,029.2,027.3,000.0,037.7,030.6,018.9,0000.0,0009.57,0004.47,0003.74
2024-06-13 05:02:00,SystemResetWarning,0830.0,5.00,000.00,029.2,027.6,000.0,037.7,030.8,018.9,0000.0,0009.36,0004.47,0003.74
2024-06-13 05:03:00,SystemResetWarning,0830.0,5.00,000.00,029.3,027.9,000.0,037.6,030.9,018.8,0000.0,0009.25,0004.46,0003.73
2024-06-13 05:04:00,SystemResetWarning,0830.0,5.00,000.00,029.3,028.2,000.0,037.6,031.0,018.6,0000.0,0009.77,0004.47,0003.73
2024-06-13 05:05:00,SystemResetWarning,0830.0,5.00,000.00,029.4,028.4,000.0,037.6,031.1,018.5,0000.0,0009.71,0004.42,0003.72
2024-06-13 05:06:00,SystemResetWarning,0830.0,5.00,000.00,029.4,028.6,000.0,037.6,031.2,018.5,0000.0,0009.13,0004.40,0003.72
2024-06-13 05:07:00,SystemResetWarning,0830.0,4.99,000.00,029.5,028.8,000.0,037.7,031.3,018.4,0000.0,0009.12,0004.43,0003.72
2024-06-13 05:08:00,SystemResetWarning,0830.0,5.00,000.00,029.6,028.9,000.0,037.7,031.4,018.3,0000.0,0009.03,0004.44,0003.73
2024-06-13 05:09:00,SystemResetWarning,0830.0,5.00,000.00,029.6,029.0,000.0,037.7,031.4,018.2,0000.0,0008.81,0004.43,0003.73
2024-06-13 05:10:00,SystemResetWarning,0830.1,5.00,000.00,029.7,029.2,000.0,037.7,031.5,018.2,0000.0,0008.82,0004.42,0003.72
2024-06-13 05:11:00,SystemResetWarning,0830.1,5.00,000.00,029.8,029.2,000.0,037.8,031.5,018.1,0000.0,0009.29,0004.39,0003.71
2024-06-13 05:12:00,SystemResetWarning,0830.2,5.00,000.00,029.8,029.3,000.0,037.8,031.6,018.1,0000.0,0009.22,0004.38,0003.70
2024-06-13 05:13:00,SystemResetWarning,0830.2,5.00,000.00,029.9,029.4,000.0,037.8,031.7,018.0,0000.0,0009.79,0004.32,0003.68
2024-06-13 05:14:00,SystemResetWarning,0830.2,5.00,000.00,029.9,029.5,000.0,037.9,031.7,018.1,0000.0,0010.12,0004.28,0003.67
2024-06-13 05:15:00,SystemResetWarning,0830.1,4.99,000.00,029.9,028.8,000.0,038.0,031.3,018.1,0000.0,0009.91,0004.30,0003.66
2024-06-13 05:16:00,SystemResetWarning,0830.0,5.00,000.00,029.6,026.7,000.0,038.0,030.4,018.3,0000.0,0009.69,0004.30,0003.66
2024-06-13 05:17:00,SystemResetWarning,0830.0,5.01,000.00,029.3,026.5,000.0,038.0,030.2,018.6,0000.0,0009.77,0004.30,0003.66
2024-06-13 05:18:00,SystemResetWarning,0830.0,4.99,000.00,029.2,026.9,000.0,037.9,030.3,018.7,0000.0,0009.80,0004.29,0003.67
2024-06-13 05:19:00,SystemResetWarning,0830.0,5.01,000.00,029.2,027.3,000.0,037.8,030.6,018.7,0000.0,0009.82,0004.28,0003.66
2024-06-13 05:20:00,SystemResetWarning,0830.0,5.01,000.00,029.3,027.6,000.0,037.8,030.8,018.6,0000.0,0009.70,0004.27,0003.66
2024-06-13 05:21:00,SystemResetWarning,0830.0,5.00,000.00,029.3,027.9,000.0,037.7,030.9,018.6,0000.0,0009.65,0004.24,0003.67
2024-06-13 05:22:00,SystemResetWarning,0830.0,5.00,000.00,029.4,028.2,000.0,037.7,031.1,018.6,0000.0,0009.19,0004.26,0003.68
2024-06-13 05:23:00,SystemResetWarning,0830.1,5.01,000.00,029.5,028.4,000.0,037.7,031.2,018.5,0000.0,0009.29,0004.28,0003.69
2024-06-13 05:24:00,SystemResetWarning,0830.1,5.01,000.00,029.5,028.6,000.0,037.7,031.2,018.3,0000.0,0008.57,0004.29,0003.70
2024-06-13 05:25:00,SystemResetWarning,0830.0,5.00,000.00,029.6,028.8,000.0,037.7,031.3,018.3,0000.0,0008.07,0004.29,0003.70
2024-06-13 05:26:00,SystemResetWarning,0830.0,5.00,000.00,029.6,028.9,000.0,037.8,031.4,018.2,0000.0,0007.85,0004.29,0003.71
2024-06-13 05:27:00,SystemResetWarning,0830.0,5.00,000.00,029.7,029.1,000.0,037.8,031.4,018.1,0000.0,0007.91,0004.30,0003.71
2024-06-13 05:28:00,SystemResetWarning,0830.0,4.99,000.00,029.7,029.2,000.0,037.8,031.5,018.0,0000.0,0007.95,0004.33,0003.72
2024-06-13 05:29:00,SystemResetWarning,0830.0,5.00,000.00,029.8,029.3,000.0,037.8,031.6,018.0,0000.0,0008.12,0004.34,0003.71
2024-06-13 05:30:00,SystemResetWarning,0830.0,5.00,000.00,029.8,029.4,000.0,037.9,031.6,017.9,0000.0,0008.32,0004.33,0003.71
2024-06-13 05:31:00,SystemResetWarning,0830.0,5.00,000.00,029.9,029.4,000.0,037.9,031.7,018.0,0000.0,0008.88,0004.34,0003.70
2024-06-13 05:32:00,SystemResetWarning,0830.0,5.01,000.00,030.0,029.5,000.0,038.0,031.8,017.8,0000.0,0009.82,0004.31,0003.68
2024-06-13 05:33:00,SystemResetWarning,0830.0,5.00,000.00,030.0,029.1,000.0,038.0,031.5,017.8,0000.0,0009.81,0004.29,0003.67
2024-06-13 05:34:00,SystemResetWarning,0830.0,4.99,000.00,029.7,026.8,000.0,038.1,030.5,018.1,0000.0,0009.77,0004.29,0003.67
2024-06-13 05:35:00,SystemResetWarning,0830.0,5.02,000.00,029.4,026.5,000.0,038.1,030.3,018.4,0000.0,0009.92,0004.32,0003.66
2024-06-13 05:36:00,SystemResetWarning,0830.0,5.00,000.00,029.3,026.8,000.0,038.0,030.4,018.5,0000.0,0010.56,0004.41,0003.68
2024-06-13 05:37:00,SystemResetWarning,0830.0,5.00,000.00,029.3,027.2,000.0,037.9,030.6,018.5,0000.0,0010.85,0004.43,0003.68
2024-06-13 05:38:00,SystemResetWarning,0830.0,5.01,000.00,029.3,027.6,000.0,037.8,030.8,018.5,0000.0,0010.83,0004.43,0003.69
2024-06-13 05:39:00,SystemResetWarning,0830.0,4.99,000.00,029.3,027.9,000.0,037.8,030.9,018.5,0000.0,0010.80,0004.42,0003.68
2024-06-13 05:40:00,SystemResetWarning,0830.0,5.00,000.00,029.4,028.2,000.0,037.8,031.1,018.5,0000.0,0010.67,0004.37,0003.67
2024-06-13 05:41:00,SystemResetWarning,0830.0,5.00,000.00,029.5,028.4,000.0,037.8,031.2,018.4,0000.0,0010.50,0004.37,0003.66
2024-06-13 05:42:00,SystemResetWarning,0830.0,5.00,000.00,029.5,028.6,000.0,037.8,031.2,018.3,0000.0,0010.24,0004.35,0003.66
2024-06-13 05:43:00,SystemResetWarning,0830.0,5.00,000.00,029.6,028.8,000.0,037.8,031.3,018.2,0000.0,0008.99,0004.37,0003.67
2024-06-13 05:44:00,SystemResetWarning,0830.1,5.00,000.00,029.6,028.9,000.0,037.8,031.4,018.2,0000.0,0009.71,0004.38,0003.65
2024-06-13 05:45:00,SystemResetWarning,0830.1,5.00,000.00,029.7,029.0,000.0,037.8,031.4,018.2,0000.0,0009.95,0004.37,0003.64
2024-06-13 05:46:00,SystemResetWarning,0830.0,4.99,000.00,029.7,029.2,000.0,037.8,031.5,018.1,0000.0,0010.14,0004.38,0003.63
2024-06-13 05:47:00,SystemResetWarning,0830.0,5.00,000.00,029.8,029.2,000.0,037.9,031.6,018.1,0000.0,0010.64,0004.30,0003.60
2024-06-13 05:48:00,SystemResetWarning,0830.0,5.00,000.00,029.9,029.3,000.0,037.9,031.7,018.0,0000.0,0010.22,0004.23,0003.58
2024-06-13 05:49:00,SystemResetWarning,0830.0,5.00,000.00,029.9,029.4,000.0,037.9,031.7,018.0,0000.0,0010.19,0004.23,0003.57
2024-06-13 05:50:00,SystemResetWarning,0830.1,5.01,000.00,030.0,029.5,000.0,038.0,031.8,018.0,0000.0,0010.11,0004.21,0003.56
2024-06-13 05:51:00,SystemResetWarning,0830.0,5.01,000.00,030.0,029.5,000.0,038.0,031.8,017.8,0000.0,0009.97,0004.20,0003.55
2024-06-13 05:52:00,SystemResetWarning,0830.0,4.98,000.00,030.1,029.4,000.0,038.1,031.7,017.8,0000.0,0009.80,0004.21,0003.55
2024-06-13 05:53:00,SystemResetWarning,0830.0,4.99,000.00,029.8,027.3,000.0,038.1,030.8,018.1,0000.0,0010.10,0004.25,0003.55
2024-06-13 05:54:00,SystemResetWarning,0830.0,5.03,000.00,029.5,026.5,000.0,038.1,030.3,018.4,0000.0,0010.68,0004.28,0003.56
2024-06-13 05:55:00,SystemResetWarning,0830.1,4.99,000.00,029.3,026.8,000.0,038.1,030.3,018.5,0000.0,0009.98,0004.30,0003.57
2024-06-13 05:56:00,SystemResetWarning,0830.0,4.99,000.00,029.3,027.2,000.0,038.0,030.5,018.5,0000.0,0010.87,0004.33,0003.58
2024-06-13 05:57:00,SystemResetWarning,0830.0,5.01,000.00,029.3,027.5,000.0,037.9,030.8,018.4,0000.0,0011.43,0004.32,0003.58
2024-06-13 05:58:00,SystemResetWarning,0830.0,5.00,000.00,029.4,027.9,000.0,037.9,030.9,018.3,0000.0,0010.56,0004.32,0003.59
2024-06-13 05:59:00,SystemResetWarning,0830.0,5.00,000.00,029.4,028.2,000.0,037.8,031.1,018.4,0000.0,0010.46,0004.34,0003.60
